Port Clinton Carl R Keller Fi, OH

9:01 PM EDT on July 27, 2017 (GMT -0400)
Keller

Weather History for KPCW - August, 2014

Change the Weather History Date:

Thursday, August 14, 2014

  Actual Average (KTTF) Record (KTTF)
Temperature  
Mean Temperature 66 °F -  
Max Temperature 72 °F 83 °F 98 °F (1947)
Min Temperature 61 °F 63 °F 14 °F (1997)
Cooling Degree Days 2    
Growing Degree Days 16 (Base 50)    
Moisture  
Dew Point 52 °F    
Average Humidity 60    
Maximum Humidity 83    
Minimum Humidity 46    
Precipitation  
Precipitation 0.02 in - - ()
Sea Level Pressure  
Sea Level Pressure 30.00 in    
Wind  
Wind Speed 8 mph (NNW)    
Max Wind Speed 16 mph    
Max Gust Speed -    
Visibility 10 miles    
Events      
Averages and records for this station are not official NWS values.
T = Trace of Precipitation, MM = Missing Value Source: NWS Daily Summary

Daily Weather History Graph

Daily Weather History Graph

Search for Another Location

Airport or City:

Trip Planner

Search our weather history database for the weather conditions in past years. The results will help you decide how hot, cold, wet, or windy it might be!

Date:

Astronomy

Aug. 14, 2014 Rise Set
Actual Time 6:39 AM EDT 8:32 PM EDT
Civil Twilight 6:09 AM EDT 9:02 PM EDT
Nautical Twilight 5:32 AM EDT 9:38 PM EDT
Astronomical Twilight 4:53 AM EDT 10:17 PM EDT
Moon 10:50 PM EDT (8/14) 11:18 AM EDT (8/14)
Length of Visible Light 14h 52m
Length of Day
13h 53m
Waning Gibbous, 79% of the Moon is Illuminated
Aug 14
Waning Gibbous
Aug 17
Last Quarter
Aug 25
New
Sep 2
First Quarter
Sep 8
Full

Hourly Weather History & Observations

Time (EDT) Temp. Dew Point Humidity Pressure Visibility Wind Dir Wind Speed Gust Speed Precip Events Conditions
12:13 AM 68.0 °F 62.6 °F 83% 29.95 in 10.0 mi Calm Calm - N/A   Mostly Cloudy
12:32 AM 68.0 °F 60.8 °F 78% 29.94 in 10.0 mi Calm Calm - N/A   Mostly Cloudy
12:53 AM 65.8 °F 59.9 °F 81% 29.95 in 10.0 mi Calm Calm - 0.01 in   Overcast
1:13 AM 66.2 °F 57.2 °F 73% 29.95 in 10.0 mi NNE 4.6 mph - N/A   Overcast
1:32 AM 69.8 °F 57.2 °F 64% 29.95 in 10.0 mi North 5.8 mph - N/A   Overcast
1:53 AM 69.8 °F 55.4 °F 60% 29.95 in 10.0 mi North 15.0 mph - N/A   Overcast
2:13 AM 68.0 °F 53.6 °F 60% 29.95 in 10.0 mi North 16.1 mph - N/A   Overcast
2:32 AM 66.2 °F 51.8 °F 60% 29.95 in 10.0 mi North 15.0 mph - N/A   Scattered Clouds
2:53 AM 66.2 °F 48.2 °F 52% 29.95 in 10.0 mi NNE 12.7 mph - N/A   Mostly Cloudy
3:13 AM 66.2 °F 48.2 °F 52% 29.95 in 10.0 mi NNE 11.5 mph - N/A   Scattered Clouds
3:53 AM 64.9 °F 50.9 °F 60% 29.96 in 10.0 mi North 10.4 mph - N/A   Partly Cloudy
4:13 AM 64.4 °F 51.8 °F 64% 29.96 in 10.0 mi NNE 6.9 mph - N/A   Scattered Clouds
4:32 AM 64.4 °F 53.6 °F 68% 29.97 in 10.0 mi North 10.4 mph - N/A   Partly Cloudy
4:53 AM 63.9 °F 54.0 °F 70% 29.97 in 10.0 mi NNE 9.2 mph - N/A   Clear
5:13 AM 64.4 °F 55.4 °F 73% 29.97 in 10.0 mi North 10.4 mph - N/A   Clear
5:33 AM 62.6 °F 53.6 °F 72% 29.97 in 10.0 mi North 11.5 mph - N/A   Clear
5:53 AM 63.0 °F 54.9 °F 75% 29.98 in 10.0 mi North 8.1 mph - N/A   Clear
6:13 AM 62.6 °F 53.6 °F 72% 29.98 in 10.0 mi North 11.5 mph - N/A   Clear
6:33 AM 62.6 °F 55.4 °F 77% 29.99 in 10.0 mi North 9.2 mph - N/A   Partly Cloudy
6:53 AM 61.0 °F 52.9 °F 75% 29.99 in 10.0 mi North 8.1 mph - N/A   Partly Cloudy
7:13 AM 62.6 °F 55.4 °F 77% 30.00 in 10.0 mi North 11.5 mph - N/A   Partly Cloudy
7:33 AM 64.4 °F 55.4 °F 73% 30.01 in 10.0 mi NNW 9.2 mph - N/A   Partly Cloudy
7:53 AM 62.6 °F 53.6 °F 72% 30.01 in 10.0 mi North 11.5 mph - N/A   Scattered Clouds
8:13 AM 62.6 °F 53.6 °F 72% 30.02 in 10.0 mi NNW 12.7 mph - N/A   Scattered Clouds
8:33 AM 62.6 °F 53.6 °F 72% 30.03 in 10.0 mi North 11.5 mph - N/A   Scattered Clouds
8:35 AM 62.6 °F 53.6 °F 72% 30.03 in 10.0 mi North 10.4 mph - N/A   Scattered Clouds
9:03 AM 64.4 °F 53.6 °F 68% 30.03 in 10.0 mi North 11.5 mph - N/A   Mostly Cloudy
9:33 AM 64.4 °F 53.6 °F 68% 30.03 in 10.0 mi NNW 12.7 mph - N/A   Scattered Clouds
9:53 AM 62.6 °F 51.8 °F 68% 30.04 in 10.0 mi NNW 9.2 mph - N/A   Partly Cloudy
10:13 AM 62.6 °F 51.8 °F 68% 30.04 in 10.0 mi North 12.7 mph - N/A   Scattered Clouds
10:33 AM 64.4 °F 51.8 °F 64% 30.04 in 10.0 mi NW 11.5 mph - N/A   Partly Cloudy
10:53 AM 64.4 °F 51.8 °F 64% 30.05 in 10.0 mi NNW 13.8 mph - N/A   Clear
11:13 AM 64.4 °F 51.8 °F 64% 30.05 in 10.0 mi North 9.2 mph - N/A   Clear
11:33 AM 66.2 °F 51.8 °F 60% 30.04 in 10.0 mi North 11.5 mph - N/A   Clear
11:53 AM 66.9 °F 52.9 °F 61% 30.04 in 10.0 mi NNW 10.4 mph - N/A   Clear
12:13 PM 66.2 °F 51.8 °F 60% 30.04 in 10.0 mi North 9.2 mph - N/A   Clear
12:33 PM 66.2 °F 53.6 °F 64% 30.04 in 9.0 mi NNW 10.4 mph - N/A   Clear
12:53 PM 68.0 °F 52.0 °F 56% 30.04 in 10.0 mi NNW 9.2 mph - N/A   Partly Cloudy
1:13 PM 68.0 °F 53.6 °F 60% 30.03 in 10.0 mi NNW 9.2 mph - N/A   Partly Cloudy
1:33 PM 68.0 °F 53.6 °F 60% 30.03 in 10.0 mi NW 9.2 mph - N/A   Scattered Clouds
1:53 PM 69.8 °F 51.8 °F 53% 30.03 in 10.0 mi NNW 9.2 mph - N/A   Partly Cloudy
2:13 PM 69.8 °F 53.6 °F 56% 30.03 in 10.0 mi NW 9.2 mph - N/A   Clear
2:33 PM 69.8 °F 53.6 °F 56% 30.02 in 10.0 mi NW 9.2 mph - N/A   Clear
2:52 PM 68.9 °F 52.9 °F 57% 30.02 in 10.0 mi NNW 10.4 mph - N/A   Clear
3:13 PM 69.8 °F 53.6 °F 56% 30.02 in 10.0 mi NW 9.2 mph - N/A   Clear
3:33 PM 69.8 °F 53.6 °F 56% 30.02 in 10.0 mi NW 12.7 mph - N/A   Clear
3:52 PM 70.9 °F 54.0 °F 55% 30.00 in 10.0 mi NW 9.2 mph - N/A   Clear
4:13 PM 71.6 °F 53.6 °F 53% 30.00 in 10.0 mi NNW 10.4 mph - N/A   Clear
4:33 PM 71.6 °F 51.8 °F 50% 30.00 in 10.0 mi North 9.2 mph - N/A   Clear
4:52 PM 71.6 °F 53.6 °F 53% 30.00 in 10.0 mi WNW 9.2 mph - N/A   Clear
5:13 PM 71.6 °F 51.8 °F 50% 29.99 in 10.0 mi NW 10.4 mph - N/A   Clear
5:33 PM 71.6 °F 51.8 °F 50% 29.99 in 10.0 mi NW 11.5 mph - N/A   Clear
5:52 PM 72.0 °F 50.9 °F 47% 29.99 in 10.0 mi NW 9.2 mph - N/A   Clear
6:13 PM 71.6 °F 51.8 °F 50% 29.99 in 10.0 mi WNW 9.2 mph - N/A   Clear
6:33 PM 71.6 °F 51.8 °F 50% 29.99 in 10.0 mi NNW 9.2 mph - N/A   Clear
6:53 PM 70.0 °F 50.9 °F 51% 29.99 in 10.0 mi NW 9.2 mph - N/A   Partly Cloudy
7:13 PM 71.6 °F 50.0 °F 46% 29.99 in 10.0 mi WNW 9.2 mph - N/A   Partly Cloudy
7:33 PM 69.8 °F 48.2 °F 46% 29.99 in 10.0 mi NW 9.2 mph - N/A   Clear
7:53 PM 68.9 °F 50.0 °F 51% 29.98 in 10.0 mi NW 5.8 mph - N/A   Partly Cloudy
8:13 PM 69.8 °F 48.2 °F 46% 29.98 in 10.0 mi WNW 10.4 mph - N/A   Partly Cloudy
8:33 PM 69.8 °F 50.0 °F 49% 29.98 in 10.0 mi NW 9.2 mph - N/A   Scattered Clouds
8:53 PM 68.9 °F 48.9 °F 49% 29.98 in 10.0 mi NW 10.4 mph - 0.01 in   Scattered Clouds
9:13 PM 69.8 °F 48.2 °F 46% 29.99 in 10.0 mi NW 9.2 mph - N/A   Mostly Cloudy
9:33 PM 68.0 °F 48.2 °F 49% 29.99 in 10.0 mi WNW 10.4 mph - N/A   Mostly Cloudy
9:53 PM 68.9 °F 47.8 °F 47% 29.99 in 10.0 mi NW 10.4 mph - N/A   Mostly Cloudy
10:13 PM 68.0 °F 48.2 °F 49% 29.99 in 10.0 mi NNW 9.2 mph - N/A   Scattered Clouds
10:33 PM 68.0 °F 48.2 °F 49% 29.99 in 10.0 mi NW 10.4 mph - N/A   Clear
10:53 PM 68.0 °F 48.2 °F 49% 29.99 in 10.0 mi NNW 8.1 mph - N/A   Partly Cloudy
11:13 PM 68.0 °F 48.2 °F 49% 29.99 in 10.0 mi NNW 6.9 mph - N/A   Clear
11:33 PM 66.2 °F 46.4 °F 49% 29.99 in 10.0 mi North 8.1 mph - N/A   Clear
11:53 PM 68.0 °F 48.9 °F 50% 30.00 in 10.0 mi NNW 6.9 mph - N/A   Partly Cloudy